Location: Holcomb Observatory and Planetarium
(39.8415°N, 86.1714°W)
Time: 16:43:37
(UTC-04:00)

ISS - Visible Passes

Search period start: 28 August 2016 00:00
Search period end: 07 September 2016 00:00
Orbit: 402 x 406 km, 51.6° (Epoch: 29 August)

Date Brightness Start Highest point End Pass type
(mag) Time Alt. Az. Time Alt. Az. Time Alt. Az.
03 Sep -1.1 06:24:41 10° S 06:27:14 21° SE 06:29:49 10° E visible
04 Sep -0.4 05:34:04 10° SE 05:35:01 11° SE 05:35:57 10° ESE visible
05 Sep -2.8 06:16:05 15° SSW 06:18:35 54° SE 06:21:48 10° ENE visible
06 Sep -1.7 05:26:02 26° SE 05:26:12 26° SE 05:29:02 10° ENE visible
